[Date Prev][Date Next][Thread Prev][Thread Next] - [Date Index][Thread Index][Author Index]

2 Line ISS Keps 9-30



ISS 
1 25544U 98067A   04274.36560185  .00013391  00000-0  12036-3 0  8004
2 25544  51.6363 148.9612 0009759 167.2846 176.3369 15.68557974334834
----
Via the sarex mailing list at AMSAT.ORG courtesy of AMSAT-NA.
To unsubscribe, send "unsubscribe sarex" to Majordomo@amsat.org



AMSAT Top AMSAT Home